Location: Eaton
(41.3139°N, 82.0207°W)
Time: 16:21:48
(UTC+00:00)

COSMOS 2428 - Pass Details

Date: 17 June 2021
Orbit: 845 x 858 km, 70.9° (Epoch: 02 August)

Event Time Altitude Azimuth Distance (km) Brightness Sun altitude
Exits shadow 03:06:54 28° 133° (SE) 1,547 3.5 -17.4°
Maximum altitude 03:08:26 33° 104° (ESE) 1,415 3.5 -17.6°
Drops below altitude 10° 03:13:28 10° 43° (NE) 2,498 5.3 -18.1°
Sets 03:16:09 0° 34° (NNE) 3,439 6.2 -18.3°
